Location: Lafig�re
(44.4503°N, 4.0357°E)
Time: 15:04:01
(UTC+00:00)

S-56A Canister/Altair - Pass Details

Date: 22 January 2021
Orbit: 631 x 2501 km, 38.9° (Epoch: 01 March)

Event Time Altitude Azimuth Distance (km) Brightness Sun altitude
Rises 02:04:52 0° 218° (SW) 3,014 - -53.5°
Reaches altitude 10° 02:07:47 10° 200° (SSW) 2,020 - -53.0°
Maximum altitude 02:10:58 19° 154° (SSE) 1,495 - -52.5°
Drops below altitude 10° 02:14:12 10° 108° (ESE) 2,068 - -52.0°
Sets 02:17:15 0° 90° (E) 3,115 - -51.5°
